Weather History for Corpus Christi, TX

Change the Weather History Date:

Wednesday, November 26, 2014

  Actual Average Record
Temperature  
Mean Temperature 58 °F 63 °F  
Max Temperature 73 °F 73 °F 92 °F (1965)
Min Temperature 42 °F 53 °F 34 °F (1993)
Degree Days  
Heating Degree Days 7 5  
Month to date heating degree days 154 70  
Since 1 July heating degree days 154 80  
Cooling Degree Days 0 3  
Month to date cooling degree days 52 114  
Year to date cooling degree days 3633 3465  
Growing Degree Days 8 (Base 50)    
Moisture  
Dew Point 44 °F    
Average Humidity 64    
Maximum Humidity 93    
Minimum Humidity 35    
Precipitation  
Precipitation 0.00 in 0.05 in 4.05 in (2005)
Month to date precipitation 2.84 1.78  
Year to date precipitation 28.32 29.74  
Snow  
Snow 0.00 in - - ()
Month to date snowfall 0.0  
Since 1 July snowfall 0.0  
Since 1 September snowfall 0.0  
Snow Depth 0.00 in    
Sea Level Pressure  
Sea Level Pressure 30.26 in    
Wind  
Wind Speed 9 mph (SSW)    
Max Wind Speed 23 mph    
Max Gust Speed 26 mph    
Visibility 10 miles    
Events      
T = Trace of Precipitation, MM = Missing Value Source: NWS Daily Summary

Daily Weather History Graph

Daily Weather History Graph

Search for Another Location

Airport:

Trip Planner

Search our weather history database for the weather conditions in past years. The results will help you decide how hot, cold, wet, or windy it might be!

Date:

Astronomy

Nov. 26, 2014 Rise Set
Actual Time 6:59 AM CST 5:34 PM CST
Civil Twilight 6:34 AM CST 5:59 PM CST
Nautical Twilight 6:05 AM CST 6:28 PM CST
Astronomical Twilight 5:37 AM CST 6:56 PM CST
Moon 10:39 AM CST (11/26) 9:59 PM CST (11/26)
Length of Visible Light 11h 25m
Length of Day
10h 34m
Waxing Crescent, 21% of the Moon is Illuminated
Nov 26
Waxing Crescent
Nov 29
First Quarter
Dec 6
Full
Dec 14
Last Quarter
Dec 21
New

Hourly Weather History & Observations

Time (CST) Temp. Windchill Dew Point Humidity Pressure Visibility Wind Dir Wind Speed Gust Speed Precip Events Conditions
12:51 AM 45.0 °F 41.8 °F 42.1 °F 90% 30.25 in 10.0 mi SE 5.8 mph - N/A   Clear
1:51 AM 45.0 °F 41.8 °F 42.1 °F 90% 30.25 in 10.0 mi South 5.8 mph - N/A   Clear
2:51 AM 45.0 °F 40.6 °F 39.9 °F 82% 30.25 in 10.0 mi SW 8.1 mph - N/A   Clear
3:51 AM 45.0 °F 41.8 °F 39.9 °F 82% 30.25 in 10.0 mi SW 5.8 mph - N/A   Clear
4:51 AM 44.1 °F 40.1 °F 39.0 °F 82% 30.25 in 10.0 mi SSW 6.9 mph - N/A   Clear
5:51 AM 43.0 °F 40.3 °F 39.0 °F 86% 30.26 in 10.0 mi SW 4.6 mph - N/A   Clear
6:51 AM 42.1 °F 40.2 °F 39.0 °F 89% 30.27 in 10.0 mi SSW 3.5 mph - N/A   Clear
7:51 AM 45.0 °F 41.2 °F 39.9 °F 82% 30.28 in 10.0 mi SW 6.9 mph - N/A   Clear
8:51 AM 51.1 °F - 41.0 °F 68% 30.29 in 10.0 mi SW 13.8 mph - N/A   Clear
9:51 AM 59.0 °F - 43.0 °F 55% 30.31 in 10.0 mi SSW 15.0 mph - N/A   Clear
10:51 AM 63.0 °F - 43.0 °F 48% 30.30 in 10.0 mi SSW 17.3 mph - N/A   Clear
11:51 AM 66.0 °F - 44.1 °F 45% 30.27 in 10.0 mi SSW 17.3 mph - N/A   Clear
12:51 PM 69.1 °F - 44.1 °F 40% 30.23 in 10.0 mi SSW 17.3 mph - N/A   Clear
1:51 PM 71.1 °F - 45.0 °F 39% 30.21 in 10.0 mi SW 13.8 mph - N/A   Clear
2:51 PM 72.0 °F - 44.1 °F 37% 30.20 in 10.0 mi SSW 11.5 mph - N/A   Clear
3:51 PM 72.0 °F - 42.1 °F 34% 30.20 in 10.0 mi SW 10.4 mph - N/A   Clear
4:51 PM 70.0 °F - 46.0 °F 42% 30.21 in 10.0 mi SSW 5.8 mph - N/A   Clear
5:51 PM 61.0 °F - 46.0 °F 58% 30.22 in 10.0 mi South 6.9 mph - N/A   Clear
6:51 PM 59.0 °F - 48.9 °F 69% 30.24 in 10.0 mi SSE 9.2 mph - N/A   Clear
7:51 PM 57.9 °F - 51.1 °F 78% 30.26 in 10.0 mi SSE 8.1 mph - N/A   Clear
8:51 PM 55.9 °F - 51.1 °F 84% 30.27 in 10.0 mi SSE 5.8 mph - N/A   Clear
9:51 PM 54.0 °F - 51.1 °F 90% 30.29 in 10.0 mi SSE 8.1 mph - N/A   Clear
10:51 PM 54.0 °F - 51.1 °F 90% 30.30 in 10.0 mi South 6.9 mph - N/A   Clear
11:51 PM 52.0 °F - 50.0 °F 93% 30.31 in 10.0 mi South 5.8 mph - N/A   Clear